User: anonymous
Location: Unspecified
(0.0000°N, 0.0000°E)
Time: 06:56:51
(UTC+00:00)
Language:

ASTRA 1KR - Orbit

View from above orbital plane
View from above orbital plane
View from above satellite
View from above satellite

Ground track
Ground track

The orbit data is extracted from the following two-line orbital elements,

1 29055U 06012A   14244.24397603  .00000108  00000-0  00000+0 0  1269
2 29055 000.0977 275.9286 0004767 281.3121 250.1197 01.00269872 30639
Epoch (UTC): 01 September 2014 05:51:19
Eccentricity: 0.0004767
inclination: 0.0977°
perigee height: 35766 km
apogee height: 35807 km
right ascension of ascending node: 275.9286°
argument of perigee: 281.3121°
revolutions per day: 1.00269872
mean anomaly at epoch: 250.1197°
orbit number at epoch: 3063

The dashed part of the orbit path shows where the satellite is in the earth's shadow,  

DLR